Regional Weather Roundup
Issued by NWS Albany, NY

Home | Current Version | Previous Version | Graphics & Text | Print | Product List | Glossary On
Versions: 1 2 3 4 5 6 7 8 9 10 11 12 13 14 15 16 17 18 19 20 21 22 23 24 25 26 27
000
ASUS41 KALY 191110
RWRALY

NEW YORK STATE HOURLY WEATHER ROUNDUP
NATIONAL WEATHER SERVICE ALBANY NY
700 AM EDT SAT APR 19 2014

NOTE: "FAIR" INDICATES FEW OR NO CLOUDS BELOW 12,000 FEET WITH NO
SIGNIFICANT WEATHER AND/OR NO OBSTRUCTIONS TO VISIBILITY.

NYZ032-033-038>043-046>054-057>066-NYZ062>081-191200-
EAST


CITY           SKY/WX    TMP DP  RH WIND       PRES   REMARKS
ALBANY         PTCLDY    43  34  70 NW17G24   30.25R
GLENS FALLS    CLEAR     34  28  79 S3        30.21R
POUGHKEEPSIE   PTCLDY    36  31  82 CALM      30.24R
MONTGOMERY     PTCLDY    38  31  76 CALM      30.24R
WHITE PLAINS   PTCLDY    38  32  79 CALM      30.23R
ISLIP          MOCLDY    40  36  86 W3        30.22R
NEW YORK CITY  MOCLDY    43  34  70 SW5       30.25R
CENTRAL PARK   PTCLDY    44  34  67 W5        30.27R
$$

NYZ005>009-017-018-044>046-055-056-191200-
CENTRAL


CITY           SKY/WX    TMP DP  RH WIND       PRES   REMARKS
FULTON         CLEAR     36  30  79 NW13      30.33R WCI  27
SYRACUSE       PTCLDY    36  30  79 W8        30.32R WCI  30
ROME           CLEAR     35  31  85 W10       30.31R WCI  27
ELMIRA         CLEAR     37  29  72 NW3       30.31R
BINGHAMTON     FAIR      37  29  72 NW7       30.26R WCI  32
MONTICELLO     PTCLDY    36  34  93 NW5       30.25R WCI  32
$$

NYZ026>034-041>043-191200-
NORTH


CITY           SKY/WX    TMP DP  RH WIND       PRES   REMARKS
WATERTOWN      CLOUDY    38  31  76 SW5       30.33R WCI  34
FORT DRUM      NOT AVBL
MASSENA        CLOUDY    40  37  89 NW9       30.29R WCI  34
SARANAC LAKE   CLOUDY    36  34  92 VRB6      30.18R WCI  31
PLATTSBURGH    LGT RAIN  42  40  92 NW6       30.20R
$$

NYZ001>004-010>016-019>021-191200-
WEST


CITY           SKY/WX    TMP DP  RH WIND       PRES   REMARKS
NIAGARA FALLS  PTCLDY    33  28  81 NW12      30.38R WCI  24
BUFFALO        PTCLDY    34  28  79 NW6       30.38R WCI  29
DUNKIRK        CLEAR     30  27  88 CALM      30.39R
JAMESTOWN      CLEAR     30  27  86 N8        30.32R WCI  23
WELLSVILLE     PTCLDY    33  28  81 NW7       30.30R WCI  27
ROCHESTER      CLEAR     36  29  75 NW7       30.36R WCI  30
PENN YAN       CLEAR     37  29  72 NW7       30.31R WCI  32
$$

             KEY
       WCI = WIND CHILL INDEX
       VSB = VISIBILITY
       HX  = HEAT INDEX
$$



USA.gov is the U.S. government's official web portal to all federal, state and local government web resources and services.